COSMOS 2476 (744)

Last updated on Tue Oct 28 2025 00:03:24 GMT+0000 (Coordinated Universal Time)

1 37867U 11064A 25299.27614388 .00000030 00000+0 00000+0 0 9990 2 37867 65.1369 80.7767 0022865 230.8683 124.6279 2.13101501108779
UTC large
Height (km)
Speed (km/s)
/
Latitude / Longitude
Inclination (degrees)
Orbital Period (minutes)
Azimuth
Elevation
Range (km)
Doppler Factor

Next 0 passes for location: London (51.5072 / 0.1276)

Sorry there are no passes over London.